Regional Weather Roundup
Issued by NWS Grand Forks, ND

Home | Current Version | Previous Version | Graphics & Text | Print | Product List | Glossary On
Versions: 1 2 3 4 5 6 7 8 9 10 11 12 13 14 15 16 17 18 19 20 21 22 23 24 25 26 27 28 29 30 31 32 33 34 35 36 37 38 39 40 41 42 43 44 45 46 47 48 49 50
000
ASUS43 KFGF 181910
RWRFGF
PRAIRIE TO PINES  WEATHER ROUNDUP
NATIONAL WEATHER SERVICE EASTERN NORTH DAKOTA/GRAND FORKS ND
100 PM CST WED JAN 18 2017

 **SATELLITE DATA USED TO AUGMENT SKY COVER AT AUTOMATED STATIONS**
 *****  WEATHER ACROSS EASTERN NORTH DAKOTA  *****

CITY           SKY/WX    TMP DP  RH WIND       PRES   REMARKS
GRAND FORKS    FAIR      32  32 100 S8        29.68F WCI  25
GRAND FRKS AFB FAIR      36  27  69 S8        29.68F
DEVILS LAKE    MIX PCPN  37  28  70 SW9       29.66F
FARGO          FAIR      34  25  69 S9        29.73F
WAHPETON ARPT  FAIR      32  25  74 E3        29.76F
$$

 ***** WEATHER ACROSS CENTRAL AND WESTERN NORTH DAKOTA  *****

CITY           SKY/WX    TMP DP  RH WIND       PRES   REMARKS
BISMARCK       FAIR      30  22  72 E5        29.70F
MINOT          FAIR      43  28  55 SW13      29.60F
JAMESTOWN      FAIR      35  29  78 S8        29.68F
MINOT AFB      FAIR      40  29  65 SW10      29.58F
GARRISON         N/A     36  26  67 CALM      29.64F
WILLISTON      FAIR      36  25  64 SW7       29.60F
DICKINSON      FAIR      38  26  62 S16       29.63F
HETTINGER      FAIR      39  25  57 W5        29.69F
$$

 *****  OTHER AIRPORT OBSERVATIONS IN OUR AREA  *****

CITY           SKY/WX    TMP DP  RH WIND       PRES   REMARKS
WALHALLA       NOT AVBL
GRAFTON AIRPOR FAIR      32  27  80 S6        29.69S
VALLEY CITY AR FAIR      30  27  86 SW8       29.71F WCI  23
CANDO          NOT AVBL
CAVALIER APRT    N/A     36  27  69 SE6       29.64F
GWINNER        FAIR      34  28  80 SW14      29.73F WCI  24
SHEYENNE NWR     N/A     34  23  64 SW8       29.95S
ROLLA            N/A    N/A N/A N/A MISG        N/A
 ***** THE ABOVE OBSERVATIONS ARE NON NWS ARE NOT QUALITY
       CONTROLLED AND MAY MIS-REPORT RAIN FOR SNOW...
$$

  *****  WEATHER ACROSS NORTHERN MINNESOTA  *****

CITY           SKY/WX    TMP DP  RH WIND       PRES   REMARKS
FLAG ISLAND    FAIR      25  19  80 SE7       29.70S WCI  17
WARROAD        FAIR      32  25  74 CALM      29.71R
ROSEAU         FAIR      30  25  80 S5        29.69S
HALLOCK        FAIR      27  23  86 S15       29.67F WCI  15
THF RVR FALLS  FAIR      32  23  69 S10       29.71F WCI  24
BAUDETTE       FAIR      33  22  63 SE6       29.71S
WASKISH        FAIR      36  25  64 W3        29.72F
CROOKSTON      FAIR      27  21  80 S13       29.71F WCI  16
GREENBUSH NDAW   N/A     30  25  80 S10         N/A  WCI  21
$$
  *****  WEATHER ACROSS CENTRAL AND WEST MINNESOTA  *****

CITY           SKY/WX    TMP DP  RH WIND       PRES   REMARKS
FOSSTON        FAIR      34  21  60 S13       29.71F WCI  25
BEMIDJI        FAIR      40  27  59 CALM      29.72S
PARK RAPIDS    FAIR      33  23  66 S7        29.73F
ELBOW LAKE     FAIR      32  27  80 E9        29.76F HAZE    WCI  24
WADENA         FAIR      36  25  64 SW3       29.76F
DETROIT LAKES  FAIR      36  27  69 S7        29.75F
MOORHEAD       FAIR      28  23  80 S9        29.75F WCI  20
FERGUS FALLS   FAIR      32  25  74 S6        29.80F
MORRIS MN      FAIR      36  28  75 SE8       29.77F
STAPLES        FAIR      37  25  60 S5        29.78S
$$
  *****  WEATHER ELSEWHERE ACROSS MINNESOTA  *****

CITY           SKY/WX    TMP DP  RH WIND       PRES   REMARKS
DULUTH         FAIR      37  26  64 SW9       29.76S
INTRNTL FALLS  FAIR      35  23  61 CALM      29.74S
ELY            FAIR      36  25  64 W6        29.74S
CLOQUET        FAIR      36  25  64 S9        29.77F
WHEATON        FAIR      41  36  81 E8        29.78S
BRAINERD       FAIR      35  25  66 S6        29.79S
HIBBING        FAIR      34  24  67 NW7       29.74F
ALEXANDRIA     FAIR      35  26  69 S3        29.77F
SAINT CLOUD    FAIR      36  28  73 S10       29.81F
MINNEAPOLIS    FAIR      40  30  67 SW13G22   29.87F
$$

  *****  WEATHER ACROSS SOUTH DAKOTA  *****

CITY           SKY/WX    TMP DP  RH WIND       PRES   REMARKS
SIOUX FALLS    FAIR      40  33  76 S12       29.84F
BROOKINGS      FAIR      36  28  73 S6        29.82S
WATERTOWN      FAIR      29  24  82 S10       29.79S WCI  20
HURON          FAIR      36  26  67 S7        29.81F
SISSETON         N/A     43  28  55 SW6       29.72F
ABERDEEN       FAIR      28  19  69 S10       29.77F WCI  19
MITCHELL       FAIR      43  29  57 CALM      29.82F
PIERRE         FAIR      28  20  71 SE5       29.77F WCI  23
MOBRIDGE       FAIR      26  18  71 SE6       29.71F WCI  19
RAPID CITY     FAIR      34  26  72 SW6       29.71F
$$

  *****  SOME WEATHER IN NEARBY STATES *****

CITY           SKY/WX    TMP DP  RH WIND       PRES   REMARKS
GLASGOW MT     FAIR      36  28  73 SE10      29.52F
GREAT FALLS MT FAIR      45  27  49 SW12      29.59S
CHEYENNE WY    FAIR      53  12  19 W10       29.83F
SCOTTSBLUFF NE FAIR      46  21  37 NW5       29.80F
OMAHA NE       FAIR      45  36  70 S13       29.97F
DES MOINES IA  FAIR      46  37  71 S12       30.00F
DAVENPORT IA   FAIR      36  33  89 S9        30.07F
CHICAGO IL     CLOUDY    34  32  92 SW12      30.07F FOG
EAU CLAIRE WI  FAIR      37  29  72 SW14      29.90F
LA CROSSE WI   FAIR      36  30  79 S10       29.97F
$$

  *****  SOME NATIONAL WEATHER *****

CITY           SKY/WX    TMP DP  RH WIND       PRES   REMARKS
LA GUARDIA NY  CLOUDY    44  38  79 N8        29.94R
RALEIGH NC     FAIR      67  35  30 NW10G23   29.96S
ATLANTA GA     PTSUNNY   67  56  67 NW17G23   30.10F
NEW ORLEANS LA PTSUNNY   76  68  76 S13       30.09F
OKLAHOMA CITY  CLOUDY    53  41  63 S7        30.07F
ALBUQUERQUE NM PTSUNNY   43  37  79 SW5       30.09F
SALT LAKE CITY FAIR      28  21  75 NW5       30.11F WCI  23
LOS ANGELES CA PTSUNNY   57  48  72 W5        30.18F
BOISE ID       LGT SNOW  22  18  85 N3        30.00F VSB 3/4
SEATTLE WA     PTSUNNY   48  47  96 SE12      29.37R
$$

*** WEATHER ACROSS MANITOBA...SASKATCHEWAN AND ONTARIO ***
                ***ONTARIO***

CITY           SKY/WX    TMP DP  RH WIND       PRES   REMARKS
GERALDTON      PTSUNNY   32  25  74 W10       29.65S WCI  24
THUNDER BAY    MOSUNNY   37  25  60 W12       29.72F
SIOUX LOOKOUT  MOSUNNY   30  21  69 SW6       29.69R WCI  24
TORONTO        CLOUDY    37  32  81 W10       29.95R
BIG TROUT LK   CLOUDY    34  30  86 W8        29.61R
PICKLE LAKE    MOSUNNY   32  23  69 W8        29.65R WCI  25
DRYDEN         SUNNY     32  23  69 SW6       29.68F
KENORA         PTSUNNY   28  21  74 S5        29.68F WCI  23
$$
                *** MANITOBA***

CITY           SKY/WX    TMP DP  RH WIND       PRES   REMARKS
BRANDON        CLOUDY    32  27  80 W10       29.57F WCI  24
DAUPHIN        SUNNY     36  30  80 CALM      29.50F
ISLAND LAKE    CLOUDY    28  23  80 SE7       29.62S WCI  21
PILOT MOUND      N/A     30  25  80 S5          N/A
THE PAS        CLOUDY    32  27  80 SE12      29.40F WCI  23
THOMPSON       CLOUDY    32  30  93 SE5       29.55R
WINNIPEG       PTSUNNY   30  23  74 S10       29.64R WCI  21
LYNN LAKE      CLOUDY    28  28 100 SE8       29.41F FOG     WCI  20
CHURCHILL      LGT SNOW   5   3  92 N7        29.66R WCI  -7
GILLAM         LGT SNOW  30  27  86 E3        29.60R VSB 3/4
$$
                ***SASKATCHEWAN***

CITY           SKY/WX    TMP DP  RH WIND       PRES   REMARKS
ESTEVAN        PTSUNNY   37  27  65 SW22G29   29.53F
KINDERSLEY     PTSUNNY   39  30  70 SW16G23   29.28F
LLOYDMINSTER   PTSUNNY   39  32  75 SW14G21   29.17R
PRINCE ALBERT  CLOUDY    34  28  80 NE6       29.26F
REGINA         PTSUNNY   36  30  80 SE10      29.44F
YORKTON        SUNNY     39  30  70 S14G21    29.44F
N. BATTLEFORD  SUNNY     41  30  65 SW8       29.23F
LA RONGE       CLOUDY    36  30  80 SE8       29.25S
SASKATOON      CLOUDY    41  32  70 S20       29.30F
SWIFT CURRENT  SUNNY     45  34  65 SW13G25   29.38R
$$
NOTE: THESE ARE AUTOMATED STATIONS WITH LIMITED QUALITY CONTROL
      "FAIR" INDICATES FEW OR NO CLOUDS BELOW 12,000 FEET WITH NO
      SIGNIFICANT WEATHER AND/OR OBSTRUCTIONS TO VISIBILITY.
      SKY/WX - SKY CONDITION AND SIGNIFICANT WEATHER.
      TMP - AIR TEMPERATURE.    DP   - DEWPOINT TEMPERATURE.
      RH  - RELATIVE HUMIDITY.  PRES - PRESSURE.
      HX  - HEAT INDEX.         WCI  - WIND CHILL INDEX.
$




USA.gov is the U.S. government's official web portal to all federal, state and local government web resources and services.